GW6788 Weather Reports


Display with metric or nautical units.
time (UTC)temp
F
wind
direction
speed
MPH
gust
MPH
rain 1hr
in
rain 24hr
in
rain mn
in
humidity
%
barometer
mb
20260509203507 74 260 5.0 11.0 0.00 0.00 0.00 59 1010.3
20260509203025 74 254 6.0 11.0 0.00 0.00 0.00 59 1010.4
20260509202513 74 253 6.0 11.0 0.00 0.00 0.00 59 1010.4
20260509202013 74 193 7.0 12.0 0.00 0.00 0.00 58 1010.4
20260509201507 73 270 3.0 14.0 0.00 0.00 0.00 61 1010.3
20260509201003 73 231 9.0 15.0 0.00 0.00 0.00 60 1010.3
20260509200503 73 251 8.0 13.0 0.00 0.00 0.00 60 1010.5
20260509200017 73 217 4.0 14.0 0.00 0.00 0.00 61 1010.6
20260509195504 73 221 6.0 14.0 0.00 0.00 0.00 60 1010.6
20260509195005 73 248 7.0 14.0 0.00 0.00 0.00 62 1010.7
20260509194520 73 263 7.0 13.0 0.00 0.00 0.00 61 1010.7
20260509194009 72 270 9.0 14.0 0.00 0.00 0.00 61 1010.6
20260509193509 73 275 6.0 14.0 0.00 0.00 0.00 61 1010.8
20260509193026 73 218 7.0 12.0 0.00 0.00 0.00 61 1010.6
20260509192508 73 247 6.0 14.0 0.00 0.00 0.00 61 1010.7
20260509192008 73 232 3.0 14.0 0.00 0.00 0.00 62 1010.8
20260509191528 73 160 7.0 15.0 0.00 0.00 0.00 61 1010.6
20260509191008 73 259 8.0 15.0 0.00 0.00 0.00 62 1010.6
20260509190503 73 244 6.0 15.0 0.00 0.00 0.00 61 1010.8
20260509190013 72 264 7.0 15.0 0.00 0.00 0.00 62 1010.9
20260509185506 71 176 7.0 14.0 0.00 0.00 0.00 64 1010.9
20260509185008 71 228 6.0 14.0 0.00 0.00 0.00 63 1011.1
20260509184529 72 259 7.0 12.0 0.00 0.00 0.00 63 1011.2
20260509184007 71 201 5.0 10.0 0.00 0.00 0.00 63 1011.2
20260509183508 72 279 5.0 10.0 0.00 0.00 0.00 61 1011.2
20260509183024 71 183 6.0 11.0 0.00 0.00 0.00 63 1011.3
20260509182509 72 233 6.0 11.0 0.00 0.00 0.00 64 1011.3
20260509182003 72 285 8.0 12.0 0.00 0.00 0.00 63 1011.5
20260509181510 71 308 3.0 13.0 0.00 0.00 0.00 63 1011.4
20260509181004 71 277 6.0 13.0 0.00 0.00 0.00 65 1011.5
20260509180504 70 275 5.0 11.0 0.00 0.00 0.00 66 1011.5
20260509180011 69 272 4.0 14.0 0.00 0.00 0.00 67 1011.7
20260509175504 69 268 9.0 14.0 0.00 0.00 0.00 67 1011.7
20260509175011 69 278 4.0 8.0 0.00 0.00 0.00 68 1011.7
20260509174515 68 223 4.0 10.0 0.00 0.00 0.00 69 1011.8
20260509174005 68 228 5.0 10.0 0.00 0.00 0.00 69 1012.0
20260509173507 68 223 5.0 9.0 0.00 0.00 0.00 68 1012.1
20260509173050 68 192 4.0 9.0 0.00 0.00 0.00 67 1012.1
20260509172509 68 251 4.0 9.0 0.00 0.00 0.00 68 1012.1
20260509172008 68 225 4.0 9.0 0.00 0.00 0.00 67 1012.1
20260509171530 68 228 4.0 13.0 0.00 0.00 0.00 67 1012.2
20260509171003 69 225 4.0 13.0 0.00 0.00 0.00 66 1012.3
20260509170504 69 263 9.0 13.0 0.00 0.00 0.00 66 1012.2
20260509170014 68 195 5.0 13.0 0.00 0.00 0.00 68 1012.3
20260509165504 68 239 6.0 13.0 0.00 0.00 0.00 68 1012.4
20260509165003 68 254 5.0 14.0 0.00 0.00 0.00 68 1012.4
20260509164516 68 213 6.0 14.0 0.00 0.00 0.00 68 1012.3
20260509164007 67 222 7.0 13.0 0.00 0.00 0.00 68 1012.3
20260509163507 67 262 7.0 14.0 0.00 0.00 0.00 68 1012.5
20260509163023 67 204 7.0 14.0 0.00 0.00 0.00 68 1012.5
20260509162506 67 272 6.0 15.0 0.00 0.00 0.00 69 1012.7
20260509162009 67 240 7.0 15.0 0.00 0.00 0.00 69 1012.8
20260509161524 67 259 5.0 10.0 0.00 0.00 0.00 69 1012.8
20260509161011 67 249 7.0 11.0 0.00 0.00 0.00 68 1012.9
20260509160506 67 256 8.0 13.0 0.00 0.00 0.00 68 1013.1
20260509160026 67 280 6.0 14.0 0.00 0.00 0.00 67 1013.2
20260509155502 67 280 8.0 16.0 0.00 0.00 0.00 68 1013.2
20260509155005 67 261 7.0 16.0 0.00 0.00 0.00 67 1013.1
20260509154514 67 297 9.0 16.0 0.00 0.00 0.00 67 1012.9
20260509154004 67 230 8.0 14.0 0.00 0.00 0.00 67 1013.0
20260509153503 67 247 8.0 14.0 0.00 0.00 0.00 66 1013.1
20260509153030 67 198 7.0 12.0 0.00 0.00 0.00 68 1013.0
20260509152507 67 209 7.0 12.0 0.00 0.00 0.00 68 1012.9
20260509152007 67 232 5.0 9.0 0.00 0.00 0.00 70 1012.8
20260509151523 67 263 5.0 9.0 0.00 0.00 0.00 70 1012.7
20260509151013 66 231 5.0 9.0 0.00 0.00 0.00 71 1012.7
20260509150509 66 236 6.0 11.0 0.00 0.00 0.00 71 1012.8
20260509150025 65 247 6.0 12.0 0.00 0.00 0.00 71 1012.7
20260509145507 65 233 8.0 12.0 0.00 0.00 0.00 71 1012.9
20260509145007 65 237 7.0 11.0 0.00 0.00 0.00 70 1012.9
20260509144510 65 217 6.0 13.0 0.00 0.00 0.00 71 1012.9
20260509144003 65 223 7.0 13.0 0.00 0.00 0.00 71 1012.9
20260509143506 65 240 4.0 11.0 0.00 0.00 0.00 72 1012.9
20260509143017 65 225 4.0 11.0 0.00 0.00 0.00 75 1012.9
20260509142504 64 236 1.0 11.0 0.00 0.00 0.00 75 1013.0
20260509142008 64 232 5.0 8.0 0.00 0.00 0.00 76 1012.9
20260509141521 63 259 3.0 7.0 0.00 0.00 0.00 76 1012.9
20260509141011 63 279 5.0 7.0 0.00 0.00 0.00 77 1012.8
20260509140505 62 237 3.0 7.0 0.00 0.00 0.00 78 1012.7
20260509140025 62 209 2.0 7.0 0.00 0.00 0.00 77 1012.6
20260509135508 61 150 3.0 6.0 0.00 0.00 0.00 79 1012.6
20260509135009 61 157 3.0 6.0 0.00 0.00 0.00 80 1012.8
20260509134527 60 151 1.0 5.0 0.00 0.00 0.00 81 1013.0
20260509134009 60 154 3.0 5.0 0.00 0.00 0.00 81 1013.2
20260509133504 59 234 2.0 5.0 0.00 0.00 0.00 81 1013.3
20260509133016 59 211 2.0 5.0 0.00 0.00 0.00 81 1013.1
20260509132504 59 308 3.0 5.0 0.00 0.00 0.00 81 1013.2
20260509132006 59 177 2.0 5.0 0.00 0.00 0.00 82 1013.4
20260509131519 58 209 2.0 5.0 0.00 0.00 0.00 82 1013.5
20260509131005 58 191 2.0 5.0 0.00 0.00 0.00 81 1013.6
20260509130509 58 148 1.0 5.0 0.00 0.00 0.00 82 1013.5
20260509130051 57 202 2.0 4.0 0.00 0.00 0.00 82 1013.5
20260509125506 57 263 1.0 4.0 0.00 0.00 0.00 81 1013.5
20260509125008 57 273 2.0 3.0 0.00 0.00 0.00 82 1013.9
20260509124532 56 275 1.0 3.0 0.00 0.00 0.00 82 1014.0
20260509124009 56 220 2.0 3.0 0.00 0.00 0.00 82 1014.0
20260509123510 56 289 1.0 3.0 0.00 0.00 0.00 82 1014.2
20260509123040 56 278 1.0 3.0 0.00 0.00 0.00 82 1014.2
20260509122508 55 272 1.0 3.0 0.00 0.00 0.00 83 1014.2
20260509122006 55 266 1.0 3.0 0.00 0.00 0.00 83 1014.1
20260509121517 55 251 1.0 3.0 0.00 0.00 0.00 83 1014.0
20260509121008 54 180 0.0 6.0 0.00 0.00 0.00 83 1013.9
20260509120507 54 197 2.0 6.0 0.00 0.00 0.00 83 1013.8
20260509120031 54 237 1.0 5.0 0.00 0.00 0.00 84 1013.9
20260509115507 54 202 2.0 4.0 0.00 0.00 0.00 84 1013.8
20260509115009 54 204 1.0 4.0 0.00 0.00 0.00 84 1013.9
20260509114526 54 299 1.0 4.0 0.00 0.00 0.00 85 1013.7
20260509114007 53 211 2.0 5.0 0.00 0.00 0.00 85 1013.6
20260509113510 53 210 3.0 5.0 0.00 0.00 0.00 87 1013.4
20260509113028 52 213 1.0 3.0 0.00 0.00 0.00 87 1013.2
20260509112510 52 171 1.0 2.0 0.00 0.00 0.00 87 1013.3
20260509112008 52 263 0.0 2.0 0.00 0.00 0.00 87 1013.4
20260509111527 52 264 1.0 2.0 0.00 0.00 0.00 87 1013.5
20260509111007 52 246 1.0 2.0 0.00 0.00 0.00 87 1013.4
20260509110506 51 144 0.0 3.0 0.00 0.00 0.00 87 1013.3
20260509110026 51 189 1.0 3.0 0.00 0.00 0.00 88 1013.4
20260509105508 51 152 1.0 2.0 0.00 0.00 0.00 88 1013.4
20260509105009 51 195 1.0 2.0 0.00 0.00 0.00 88 1013.5
20260509104524 51 242 0.0 2.0 0.00 0.00 0.00 87 1013.4
20260509104007 51 242 0.0 2.0 0.00 0.00 0.00 87 1013.5
20260509103507 51 242 0.0 2.0 0.00 0.00 0.00 87 1013.4
20260509103026 51 242 0.0 2.0 0.00 0.00 0.00 88 1013.3
20260509102509 51 240 0.0 2.0 0.00 0.00 0.00 88 1013.2
20260509102010 51 240 0.0 2.0 0.00 0.00 0.00 88 1013.1
20260509101536 51 240 0.0 2.0 0.00 0.00 0.00 88 1013.1
20260509101008 51 36 0.0 2.0 0.00 0.00 0.00 88 1013.1
20260509100508 50 39 0.0 2.0 0.00 0.00 0.00 88 1013.0
20260509100030 51 6 0.0 2.0 0.00 0.00 0.00 87 1013.0
20260509095504 51 31 0.0 2.0 0.00 0.00 0.00 87 1013.0
20260509095005 51 31 0.0 2.0 0.00 0.00 0.00 87 1012.9
20260509094508 51 36 0.0 2.0 0.00 0.00 0.00 87 1012.9
20260509094003 51 36 0.0 2.0 0.00 0.00 0.00 87 1012.9
20260509093503 51 36 0.0 2.0 0.00 0.00 0.00 86 1012.9
20260509093006 52 34 1.0 2.0 0.00 0.00 0.00 86 1012.9
20260509092504 52 98 0.0 2.0 0.00 0.00 0.00 86 1012.9
20260509092003 52 206 0.0 2.0 0.00 0.00 0.00 86 1012.9
20260509091507 52 192 0.0 2.0 0.00 0.00 0.00 85 1012.8
20260509091004 52 190 0.0 2.0 0.00 0.00 0.00 85 1012.9
20260509090504 52 190 0.0 2.0 0.00 0.00 0.00 86 1013.0
20260509090008 52 183 0.0 2.0 0.00 0.00 0.00 86 1013.1
20260509085502 52 103 0.0 2.0 0.00 0.00 0.00 86 1013.1
20260509085007 52 58 0.0 2.0 0.00 0.00 0.00 86 1013.3
20260509084508 52 56 0.0 2.0 0.00 0.00 0.00 86 1013.3
20260509084004 52 38 0.0 2.0 0.00 0.00 0.00 85 1013.3
20260509083504 53 38 0.0 2.0 0.00 0.00 0.00 85 1013.1
20260509083009 53 41 1.0 2.0 0.00 0.00 0.00 86 1013.1
20260509082504 53 43 1.0 3.0 0.00 0.00 0.00 85 1013.1
20260509082006 53 45 2.0 3.0 0.00 0.00 0.00 85 1012.9
20260509081508 53 29 1.0 2.0 0.00 0.00 0.00 85 1012.9
20260509081004 53 29 0.0 2.0 0.00 0.00 0.00 85 1012.8
20260509080503 53 29 1.0 2.0 0.00 0.00 0.00 85 1012.8
20260509080010 54 327 0.0 2.0 0.00 0.00 0.00 84 1012.9
20260509075503 54 327 0.0 2.0 0.00 0.00 0.00 84 1013.0
20260509075006 54 13 0.0 2.0 0.00 0.00 0.00 83 1013.1
20260509074508 55 29 1.0 2.0 0.00 0.00 0.00 83 1013.1
20260509074003 55 328 0.0 2.0 0.00 0.00 0.00 83 1013.1
20260509073503 55 329 0.0 2.0 0.00 0.00 0.00 82 1013.1
20260509073010 55 36 0.0 2.0 0.00 0.00 0.00 82 1013.2
20260509072504 55 36 0.0 2.0 0.00 0.00 0.00 82 1013.4
20260509072003 55 55 2.0 2.0 0.00 0.00 0.00 82 1013.4
20260509071508 55 31 0.0 2.0 0.00 0.00 0.00 82 1013.5
20260509071005 55 29 0.0 2.0 0.00 0.00 0.00 82 1013.5
20260509070504 55 29 0.0 2.0 0.00 0.00 0.00 83 1013.6
20260509070012 55 343 0.0 2.0 0.00 0.00 0.00 83 1013.6
20260509065504 55 250 0.0 2.0 0.00 0.00 0.00 84 1013.8
20260509065003 54 250 0.0 2.0 0.00 0.00 0.00 84 1013.9
20260509064512 54 248 0.0 2.0 0.00 0.00 0.00 84 1014.0
20260509064007 54 248 0.0 0.0 0.00 0.00 0.00 84 1014.0
20260509063503 54 248 0.0 2.0 0.00 0.00 0.00 84 1014.0
20260509063013 54 248 0.0 2.0 0.00 0.00 0.00 84 1014.1
20260509062509 54 248 0.0 2.0 0.00 0.00 0.00 83 1014.1
20260509062004 54 261 0.0 2.0 0.00 0.00 0.00 83 1014.1
20260509061517 54 263 0.0 2.0 0.00 0.00 0.00 83 1014.1
20260509061004 54 263 0.0 2.0 0.00 0.00 0.00 82 1014.2
20260509060504 55 263 0.0 2.0 0.00 0.00 0.00 82 1014.3
20260509060010 55 81 0.0 2.0 0.00 0.00 0.00 82 1014.4
20260509055504 55 206 0.0 2.0 0.00 0.00 0.00 81 1014.3
20260509055003 55 206 0.0 2.0 0.00 0.00 0.00 81 1014.4
20260509054514 56 206 0.0 2.0 0.00 0.00 0.00 81 1014.5
20260509054006 56 202 0.0 2.0 0.00 0.00 0.00 80 1014.7
20260509053504 56 202 0.0 2.0 0.00 0.00 0.00 80 1014.6
20260509053016 56 208 0.0 2.0 0.00 0.00 0.00 80 1014.7
20260509052504 56 207 0.0 2.0 0.00 0.00 0.00 79 1014.6
20260509052004 56 243 0.0 2.0 0.00 0.00 0.00 79 1014.7
20260509051516 56 243 1.0 2.0 0.00 0.00 0.00 79 1014.9
20260509051007 56 248 0.0 2.0 0.00 0.00 0.00 79 1014.9
20260509050504 57 238 0.0 2.0 0.00 0.00 0.00 78 1014.9
20260509050023 57 150 0.0 2.0 0.00 0.00 0.00 78 1015.0
20260509045504 57 154 0.0 2.0 0.00 0.00 0.00 77 1015.1
20260509045005 57 180 0.0 2.0 0.00 0.00 0.00 78 1015.1
20260509044513 57 250 0.0 2.0 0.00 0.00 0.00 78 1015.1
20260509044004 57 250 0.0 2.0 0.00 0.00 0.00 77 1015.1
20260509043505 57 250 0.0 2.0 0.00 0.00 0.00 77 1015.1
20260509043018 57 250 0.0 2.0 0.00 0.00 0.00 76 1015.2
20260509042504 57 217 0.0 2.0 0.00 0.00 0.00 75 1015.2
20260509042005 58 222 0.0 2.0 0.00 0.00 0.00 75 1015.2
20260509041520 58 291 0.0 2.0 0.00 0.00 0.00 75 1015.1
20260509041005 58 291 0.0 2.0 0.00 0.00 0.00 74 1015.2
20260509040507 58 267 1.0 2.0 0.00 0.00 0.00 74 1015.3
20260509040033 59 236 0.0 2.0 0.00 0.00 0.00 72 1015.2
20260509035507 59 217 0.0 2.0 0.00 0.00 0.00 71 1015.1
20260509035005 60 233 0.0 3.0 0.00 0.00 0.00 70 1015.1
20260509034512 60 188 0.0 3.0 0.00 0.00 0.00 69 1015.2
20260509034003 60 182 2.0 3.0 0.00 0.00 0.00 68 1015.2
20260509033503 60 171 0.0 2.0 0.00 0.00 0.00 68 1015.1
20260509033015 60 143 1.0 2.0 0.00 0.00 0.00 68 1015.2
20260509032505 60 187 0.0 3.0 0.00 0.00 0.00 68 1015.1
20260509032002 60 229 1.0 3.0 0.00 0.00 0.00 67 1015.1
20260509031512 61 168 1.0 3.0 0.00 0.00 0.00 67 1015.3
20260509031003 61 193 1.0 3.0 0.00 0.00 0.00 66 1015.3
20260509030503 61 166 0.0 3.0 0.00 0.00 0.00 66 1015.2
20260509030006 61 161 1.0 3.0 0.00 0.00 0.00 66 1015.3
20260509025502 61 191 1.0 3.0 0.00 0.00 0.00 66 1015.3
20260509025002 61 191 1.0 3.0 0.00 0.00 0.00 65 1015.3
20260509024510 61 251 0.0 2.0 0.00 0.00 0.00 65 1015.3
20260509024004 61 202 0.0 3.0 0.00 0.00 0.00 65 1015.3
20260509023502 61 183 1.0 4.0 0.00 0.00 0.00 65 1015.4
20260509023014 61 195 1.0 4.0 0.00 0.00 0.00 65 1015.5
20260509022504 61 180 1.0 4.0 0.00 0.00 0.00 65 1015.4
20260509022005 62 193 2.0 4.0 0.00 0.00 0.00 64 1015.4
20260509021519 62 176 2.0 3.0 0.00 0.00 0.00 64 1015.5
20260509021002 62 206 2.0 3.0 0.00 0.00 0.00 64 1015.5
20260509020501 62 198 1.0 3.0 0.00 0.00 0.00 64 1015.4
20260509020005 62 184 1.0 2.0 0.00 0.00 0.00 64 1015.4
20260509015505 62 232 1.0 3.0 0.00 0.00 0.00 63 1015.4
20260509015003 62 199 0.0 3.0 0.00 0.00 0.00 63 1015.4
20260509014515 62 190 1.0 3.0 0.00 0.00 0.00 64 1015.5
20260509014003 63 193 1.0 2.0 0.00 0.00 0.00 62 1015.4
20260509013507 63 204 1.0 2.0 0.00 0.00 0.00 62 1015.4
20260509013011 63 211 0.0 3.0 0.00 0.00 0.00 61 1015.4
20260509012503 63 204 0.0 3.0 0.00 0.00 0.00 62 1015.2
20260509012003 63 202 1.0 2.0 0.00 0.00 0.00 61 1015.2
20260509011518 63 236 0.0 2.0 0.00 0.00 0.00 62 1015.3
20260509011004 63 234 0.0 2.0 0.00 0.00 0.00 61 1015.2
20260509010507 64 195 0.0 2.0 0.00 0.00 0.00 60 1015.2
20260509010025 64 196 0.0 2.0 0.00 0.00 0.00 60 1015.3
20260509005503 64 197 1.0 2.0 0.00 0.00 0.00 59 1015.2
20260509005002 64 230 0.0 2.0 0.00 0.00 0.00 59 1015.2
20260509004508 64 230 0.0 2.0 0.00 0.00 0.00 58 1015.2
20260509004002 64 225 0.0 3.0 0.00 0.00 0.00 57 1015.2
20260509003502 64 229 1.0 3.0 0.00 0.00 0.00 57 1015.1
20260509003011 65 215 1.0 3.0 0.00 0.00 0.00 56 1015.1
20260509002503 65 203 2.0 3.0 0.00 0.00 0.00 56 1015.0
20260509002003 65 245 1.0 3.0 0.00 0.00 0.00 55 1015.0
20260509001516 65 186 1.0 4.0 0.00 0.00 0.00 55 1015.1
20260509001003 66 218 2.0 4.0 0.00 0.00 0.00 54 1014.9
20260509000504 66 175 1.0 3.0 0.00 0.00 0.00 53 1014.9
20260509000016 66 236 1.0 3.0 0.00 0.00 0.00 53 1014.9
20260508235510 66 230 1.0 3.0 0.00 0.00 0.00 52 1014.9
20260508235008 66 237 2.0 4.0 0.00 0.00 0.00 52 1014.7
20260508234504 67 190 3.0 4.0 0.00 0.00 0.00 51 1014.8
20260508234006 67 231 2.0 3.0 0.00 0.00 0.00 50 1014.6
20260508233502 67 203 2.0 5.0 0.00 0.00 0.00 49 1014.6
20260508233008 67 252 2.0 5.0 0.00 0.00 0.00 49 1014.5
20260508232504 67 242 3.0 4.0 0.00 0.00 0.00 48 1014.7
20260508232003 67 269 2.0 4.0 0.00 0.00 0.00 48 1014.7
20260508231508 68 233 1.0 4.0 0.00 0.00 0.00 47 1014.5
20260508231006 68 227 3.0 4.0 0.00 0.00 0.00 47 1014.5
20260508230505 68 254 2.0 5.0 0.00 0.00 0.00 46 1014.5
20260508230015 68 240 3.0 7.0 0.00 0.00 0.00 46 1014.6
20260508225508 68 211 2.0 7.0 0.00 0.00 0.00 46 1014.8
20260508225004 68 261 5.0 7.0 0.00 0.00 0.00 45 1014.7
20260508224521 68 231 2.0 7.0 0.00 0.00 0.00 44 1014.7
20260508224005 68 277 3.0 9.0 0.00 0.00 0.00 45 1014.6
20260508223508 68 210 4.0 9.0 0.00 0.00 0.00 44 1014.7
20260508223008 69 260 3.0 10.0 0.00 0.00 0.00 44 1014.7
20260508222504 69 277 3.0 10.0 0.00 0.00 0.00 43 1014.6
20260508222005 69 268 5.0 11.0 0.00 0.00 0.00 43 1014.7
20260508221507 69 237 3.0 12.0 0.00 0.00 0.00 43 1014.6
20260508221006 69 259 5.0 12.0 0.00 0.00 0.00 42 1014.7
20260508220503 70 240 4.0 9.0 0.00 0.00 0.00 42 1014.8
20260508220041 70 253 4.0 13.0 0.00 0.00 0.00 42 1014.8
20260508215504 69 280 7.0 13.0 0.00 0.00 0.00 40 1014.7
20260508215005 70 210 4.0 9.0 0.00 0.00 0.00 42 1014.5
20260508214520 69 246 4.0 8.0 0.00 0.00 0.00 43 1014.4
20260508214007 69 165 4.0 11.0 0.00 0.00 0.00 42 1014.4
20260508213505 69 183 3.0 11.0 0.00 0.00 0.00 43 1014.5
20260508213022 69 214 4.0 9.0 0.00 0.00 0.00 41 1014.5
20260508212509 69 257 4.0 9.0 0.00 0.00 0.00 41 1014.3
20260508212002 69 269 5.0 9.0 0.00 0.00 0.00 40 1014.6
20260508211508 69 278 4.0 11.0 0.00 0.00 0.00 40 1014.6
20260508211004 69 261 4.0 11.0 0.00 0.00 0.00 39 1014.6
20260508210504 69 270 3.0 9.0 0.00 0.00 0.00 40 1014.6
20260508210010 70 230 6.0 8.0 0.00 0.00 0.00 38 1014.8
20260508205504 70 247 3.0 8.0 0.00 0.00 0.00 39 1014.8
20260508205004 70 240 2.0 8.0 0.00 0.00 0.00 39 1014.9
20260508204521 70 274 5.0 8.0 0.00 0.00 0.00 42 1014.9
20260508204010 70 234 1.0 4.0 0.00 0.00 0.00 40 1014.8